Tracking 19283 objects as of 17-Nov-2018
HD Live streaming from Space Station
objects crossing your sky now

ATLAS 3B CENTAUR R/B

Track ATLAS 3B CENTAUR R/B now!
10-day predictions


NORAD ID: 28118
Int'l Code: 2003-057B
Perigee: 231.2 km
Apogee: 5,226.5 km
Inclination: 28.1 °
Period: 144.0 minutes
Semi major axis: 9099 km
RCS: 12.441 m2 (large)
Launch date: December 18, 2003
Source: United States (US)
Launch site: AIR FORCE EASTERN TEST RANGE (AFETR)

Note: This is a ROCKET BODY
aabbcc
Your satellite tracking list
Your tracking list is empty




NASA's NSSDC Master Catalog

Two Line Element Set (TLE):
1 28118U 03057B   18321.55434092  .00059837 -35337-6  77927-3 0  9997
2 28118  28.1006 112.8141 2744702 126.7380 261.7753 10.00119466339992
Source of the keplerian elements: AFSPC